This is the latest recevied weather packets stored in our database for station/object OH2MUI. If no packets are shown the sender has not sent any weather packets the latest 10 day(s).
| Time | Temp. | Humidity | Pressure | Rain* | Wind** | Luminosity | Snow |
|---|---|---|---|---|---|---|---|
| 1777987492 | 10° C | 49% | 1006.2 hPa | 0 mm | - | - | - |
| 1777986434 | 10° C | 50% | 1006.2 hPa | 0 mm | - | - | - |
| 1777985252 | 10° C | 50% | 1006.1 hPa | 0 mm | - | - | - |
| 1777984277 | 10° C | 54% | 1005.9 hPa | 0 mm | - | - | - |
| 1777983284 | 9.44° C | 52% | 1005.8 hPa | 0 mm | - | - | - |
| 1777982172 | 9.44° C | 52% | 1005.8 hPa | 0 mm | - | - | - |
| 1777981094 | 9.44° C | 59% | 1005.6 hPa | 0 mm | - | - | - |
| 1777979920 | 9.44° C | - | - | 0 mm | - | - | - |
| 1777979914 | 9.44° C | 60% | 1005.3 hPa | 0 mm | - | - | - |
| 1777978789 | 9.44° C | 61% | 1005.4 hPa | 0 mm | - | - | - |
| 1777977664 | 8.89° C | 66% | 1005.3 hPa | 0 mm | - | - | - |
| 1777976552 | 9.44° C | 67% | 1005.1 hPa | 0 mm | - | - | - |
| 1777975389 | 8.89° C | 66% | 1004.9 hPa | 0 mm | - | - | - |
| 1777974389 | 9.44° C | 67% | 1004.6 hPa | 0 mm | - | - | - |
| 1777973225 | 9.44° C | 66% | - | 0 mm | - | - | - |
| 1777973209 | 9.44° C | 66% | 1004.5 hPa | 0 mm | - | - | - |
| 1777972139 | 8.89° C | 70% | 1004.4 hPa | 0 mm | - | - | - |
| 1777971097 | 9.44° C | 70% | 1003.9 hPa | 0 mm | - | - | - |
| 1777971094 | 9.44° C | 70% | 1003.9 hPa | 0 mm | - | - | - |
| 1777969899 | 9.44° C | 71% | 1003.3 hPa | 0 mm | - | - | - |
| 1777968933 | 9.44° C | 69% | - | 0 mm | - | - | - |
| 1777968929 | 9.44° C | 69% | 1003.3 hPa | 0 mm | - | - | - |
| 1777967972 | 9.44° C | 72% | 1003 hPa | 0 mm | - | - | - |
| 1777966816 | 9.44° C | 74% | 1002.9 hPa | 0 mm | - | - | - |
| 1777965834 | 10° C | 75% | 1002.7 hPa | 0 mm | - | - | - |
* Rain latest hour (hover to see other rain measurements)
** Current wind speed in m/s (hover to see current wind gust speed)